Hereford, TX

3:34 PM CDT on June 25, 2017 (GMT -0500)
Hereford Municipal

Weather History for KHRX - March, 2013

Change the Weather History Date:

Tuesday, March 5, 2013

  Actual Average (KCVN) Record (KCVN)
Temperature  
Mean Temperature 36 °F -  
Max Temperature 50 °F 57 °F 84 °F (1934)
Min Temperature 23 °F 28 °F 4 °F (1948)
Degree Days  
Heating Degree Days 28    
Moisture  
Dew Point 21 °F    
Average Humidity 57    
Maximum Humidity 93    
Minimum Humidity 28    
Precipitation  
Precipitation 0.05 in - - ()
Sea Level Pressure  
Sea Level Pressure 30.34 in    
Wind  
Wind Speed 7 mph (South)    
Max Wind Speed 9 mph    
Max Gust Speed -    
Visibility 10 miles    
Events Thunderstorm    
Averages and records for this station are not official NWS values.
T = Trace of Precipitation, MM = Missing Value Source: NWS Daily Summary

Daily Weather History Graph

Daily Weather History Graph

Search for Another Location

Airport or City:

Trip Planner

Search our weather history database for the weather conditions in past years. The results will help you decide how hot, cold, wet, or windy it might be!

Date:

Astronomy

Mar. 05, 2013 Rise Set
Actual Time 7:13 AM CST 6:48 PM CST
Civil Twilight 6:47 AM CST 7:14 PM CST
Nautical Twilight 6:18 AM CST 7:43 PM CST
Astronomical Twilight 5:49 AM CST 8:12 PM CST
Moon 2:17 AM CST (3/5) 12:40 PM CST (3/5)
Length of Visible Light 12h 26m
Length of Day
11h 35m
Last Quarter, 40% of the Moon is Illuminated
Mar 5
Last Quarter
Mar 11
New
Mar 19
First Quarter
Mar 27
Full
Apr 2
Last Quarter

Hourly Weather History & Observations

Time (CST) Temp. Windchill Dew Point Humidity Pressure Visibility Wind Dir Wind Speed Gust Speed Precip Events Conditions
12:15 AM 35.6 °F - 28.4 °F 75% 30.21 in 10.0 mi North - - N/A   Overcast
12:35 AM 33.8 °F - 28.4 °F 81% 30.22 in 10.0 mi North - - N/A   Overcast
12:55 AM 33.8 °F - 26.6 °F 75% 30.22 in 10.0 mi North - - N/A   Overcast
1:15 AM 33.8 °F - 28.4 °F 81% 30.23 in 10.0 mi North - - N/A   Overcast
1:35 AM 33.8 °F - 28.4 °F 81% 30.24 in 10.0 mi North - - N/A   Overcast
1:55 AM 33.8 °F - 28.4 °F 81% 30.25 in 10.0 mi North - - N/A   Overcast
2:15 AM 33.8 °F - 28.4 °F 81% 30.27 in 10.0 mi North - - N/A   Overcast
2:35 AM 32.0 °F - 26.6 °F 80% 30.27 in 10.0 mi North - - N/A   Scattered Clouds
2:55 AM 32.0 °F - 24.8 °F 75% 30.27 in 10.0 mi North - - N/A   Clear
3:15 AM 30.2 °F - 24.8 °F 80% 30.27 in 10.0 mi North - - N/A   Clear
3:35 AM 30.2 °F - 24.8 °F 80% 30.26 in 10.0 mi North - - N/A   Clear
3:55 AM 30.2 °F - 24.8 °F 80% 30.28 in 10.0 mi North - - N/A   Clear
4:15 AM 30.2 °F - 24.8 °F 80% 30.29 in 10.0 mi North - - N/A   Clear
4:35 AM 28.4 °F - 23.0 °F 80% 30.30 in 10.0 mi North - - N/A   Clear
4:55 AM 28.4 °F - 23.0 °F 80% 30.31 in 10.0 mi North - - N/A   Clear
5:15 AM 28.4 °F - 23.0 °F 80% 30.31 in 10.0 mi North - - N/A   Clear
5:35 AM 28.4 °F - 23.0 °F 80% 30.32 in 10.0 mi North - - N/A   Clear
5:55 AM 26.6 °F - 21.2 °F 80% 30.33 in 10.0 mi North - - N/A   Clear
6:15 AM 24.8 °F - 21.2 °F 86% 30.34 in 10.0 mi North - - N/A   Clear
6:35 AM 24.8 °F - 21.2 °F 86% 30.35 in 10.0 mi North - - N/A   Clear
7:35 AM 23.0 °F - 21.2 °F 93% 30.38 in 10.0 mi North - - N/A   Clear
7:55 AM 26.6 °F - 23.0 °F 86% 30.39 in 10.0 mi North - - N/A   Clear
8:15 AM 28.4 °F - 23.0 °F 80% 30.40 in 10.0 mi North - - N/A   Clear
8:35 AM 30.2 °F - 23.0 °F 75% 30.41 in 10.0 mi North - - N/A   Clear
8:55 AM 32.0 °F - 23.0 °F 69% 30.42 in 10.0 mi North - - N/A   Clear
9:15 AM 33.8 °F - 19.4 °F 56% 30.43 in 10.0 mi North - - N/A   Clear
9:35 AM 33.8 °F - 21.2 °F 60% 30.44 in 10.0 mi North - - N/A   Clear
9:55 AM 33.8 °F - 19.4 °F 56% 30.44 in 10.0 mi North - - N/A   Clear
10:15 AM 35.6 °F - 21.2 °F 56% 30.44 in 10.0 mi North - - N/A   Clear
10:35 AM 37.4 °F - 21.2 °F 52% 30.44 in 10.0 mi North - - N/A   Clear
10:55 AM 37.4 °F - 19.4 °F 48% 30.43 in 10.0 mi North - - N/A   Clear
11:15 AM 37.4 °F - 19.4 °F 48% 30.43 in 10.0 mi North - - N/A   Clear
11:35 AM 41.0 °F - 19.4 °F 42% 30.43 in 10.0 mi North - - N/A   Clear
11:55 AM 41.0 °F - 19.4 °F 42% 30.42 in 10.0 mi North - - N/A   Clear
12:15 PM 41.0 °F - 17.6 °F 39% 30.41 in 10.0 mi North - - N/A   Clear
12:35 PM 42.8 °F - 17.6 °F 36% 30.41 in 10.0 mi North - - N/A   Clear
12:55 PM 42.8 °F - 15.8 °F 34% 30.40 in 10.0 mi North - - N/A   Clear
1:15 PM 42.8 °F - 15.8 °F 34% 30.39 in 10.0 mi North - - N/A   Clear
1:35 PM 44.6 °F - 15.8 °F 31% 30.38 in 10.0 mi North - - N/A   Clear
1:55 PM 44.6 °F - 15.8 °F 31% 30.37 in 10.0 mi North - - N/A   Clear
2:15 PM 46.4 °F - 17.6 °F 32% 30.36 in 10.0 mi North - - N/A   Clear
2:35 PM 46.4 °F - 17.6 °F 32% 30.35 in 10.0 mi North - - N/A   Clear
2:55 PM 46.4 °F - 17.6 °F 32% 30.35 in 10.0 mi North - - N/A   Clear
3:15 PM 46.4 °F - 17.6 °F 32% 30.33 in 10.0 mi North - - N/A   Clear
3:35 PM 46.4 °F - 17.6 °F 32% 30.33 in 10.0 mi North - - N/A   Clear
3:55 PM 46.4 °F - 17.6 °F 32% 30.32 in 10.0 mi North - - N/A   Clear
4:15 PM 50.0 °F - 17.6 °F 28% 30.32 in 10.0 mi North - - N/A   Clear
4:35 PM 50.0 °F - 19.4 °F 30% 30.32 in 10.0 mi North - - N/A   Clear
4:55 PM 50.0 °F - 19.4 °F 30% 30.31 in 10.0 mi North - - N/A   Clear
5:15 PM 50.0 °F - 19.4 °F 30% 30.31 in 10.0 mi North - - N/A   Clear
5:35 PM 50.0 °F - 19.4 °F 30% 30.31 in 10.0 mi North - - N/A   Clear
5:55 PM - - - N/A% - - North - - N/A   Unknown
6:15 PM 46.4 °F 43.5 °F 19.4 °F 34% 30.31 in - South 5.8 mph - 0.05 in Thunderstorm Thunderstorm
6:35 PM 44.6 °F 43.1 °F 19.4 °F 37% 30.31 in 10.0 mi South 3.5 mph - 0.05 in   Clear
7:15 PM 41.4 °F 37.6 °F 19.8 °F 42% 30.31 in 10.0 mi South 5.8 mph - N/A   Clear
7:35 PM 40.1 °F 34.7 °F 20.3 °F 45% 30.31 in 10.0 mi SSE 8.1 mph - N/A   Clear
7:55 PM 38.7 °F 32.4 °F 20.7 °F 48% 30.32 in 10.0 mi South 9.2 mph - N/A   Clear
8:15 PM 38.3 °F 33.2 °F 20.3 °F 48% 30.31 in 10.0 mi SSE 6.9 mph - N/A   Clear
8:35 PM 38.7 °F 32.9 °F 20.8 °F 49% 30.31 in 10.0 mi SSE 8.1 mph - N/A   Clear
8:55 PM 36.1 °F 29.9 °F 20.8 °F 54% 30.32 in 10.0 mi South 8.1 mph - N/A   Clear
9:15 PM 35.1 °F 28.6 °F 21.0 °F 57% 30.32 in 10.0 mi South 8.1 mph - N/A   Clear
9:35 PM 37.2 °F 30.6 °F 20.5 °F 51% 30.32 in 10.0 mi South 9.2 mph - N/A   Clear
9:55 PM 35.1 °F 28.6 °F 20.7 °F 56% 30.33 in 10.0 mi South 8.1 mph - N/A   Clear
10:15 PM 34.3 °F 27.0 °F 20.7 °F 57% 30.33 in 10.0 mi South 9.2 mph - N/A   Clear
10:35 PM 34.2 °F 27.5 °F 21.0 °F 59% 30.33 in 10.0 mi South 8.1 mph - N/A   Clear
10:55 PM 33.4 °F 27.3 °F 20.7 °F 59% 30.33 in 10.0 mi South 6.9 mph - N/A   Clear
11:15 PM 32.7 °F 25.0 °F 20.8 °F 62% 30.33 in 10.0 mi South 9.2 mph - N/A   Clear
11:35 PM 32.0 °F 24.8 °F 20.5 °F 63% 30.32 in 10.0 mi South 8.1 mph - N/A   Clear
11:55 PM 32.0 °F 24.8 °F 21.0 °F 64% 30.32 in 10.0 mi South 8.1 mph - N/A   Clear